TimeCDT,TemperatureF,Dew PointF,Humidity,Sea Level PressureIn,VisibilityMPH,Wind Direction,Wind SpeedMPH,Gust SpeedMPH,PrecipitationIn,Events,Conditions,WindDirDegrees,DateUTC
12:15 AM,32.0,21.2,64,30.17,10.0,South,5.8,-,N/A,,Scattered Clouds,180,2013-03-30 05:15:00
12:35 AM,30.2,21.2,69,30.16,10.0,South,6.9,-,N/A,,Scattered Clouds,180,2013-03-30 05:35:00
12:55 AM,32.0,23.0,69,30.16,10.0,South,5.8,-,N/A,,Mostly Cloudy,170,2013-03-30 05:55:00
1:15 AM,32.0,23.0,69,30.15,10.0,South,6.9,-,N/A,,Overcast,170,2013-03-30 06:15:00
1:35 AM,32.0,23.0,69,30.15,10.0,South,6.9,-,N/A,,Overcast,170,2013-03-30 06:35:00
1:55 AM,32.0,23.0,69,30.14,10.0,South,6.9,-,N/A,,Overcast,170,2013-03-30 06:55:00
2:15 AM,32.0,24.8,75,30.14,10.0,South,5.8,-,N/A,,Overcast,180,2013-03-30 07:15:00
2:35 AM,32.0,24.8,75,30.13,10.0,South,6.9,-,N/A,,Overcast,170,2013-03-30 07:35:00
2:55 AM,32.0,24.8,75,30.12,10.0,SSE,6.9,-,N/A,,Overcast,160,2013-03-30 07:55:00
3:15 AM,32.0,26.6,80,30.11,10.0,South,6.9,-,N/A,,Overcast,170,2013-03-30 08:15:00
3:35 AM,32.0,26.6,80,30.10,10.0,SSE,6.9,-,N/A,,Mostly Cloudy,160,2013-03-30 08:35:00
3:55 AM,32.0,26.6,80,30.09,10.0,SSE,6.9,-,N/A,,Mostly Cloudy,150,2013-03-30 08:55:00
4:15 AM,33.8,26.6,75,30.09,10.0,SSE,8.1,-,N/A,,Mostly Cloudy,160,2013-03-30 09:15:00
4:35 AM,32.0,26.6,80,30.08,10.0,South,8.1,-,N/A,,Mostly Cloudy,190,2013-03-30 09:35:00
4:55 AM,32.0,26.6,80,30.07,10.0,SSE,8.1,-,N/A,,Scattered Clouds,160,2013-03-30 09:55:00
5:15 AM,33.8,26.6,75,30.07,10.0,South,9.2,-,N/A,,Scattered Clouds,170,2013-03-30 10:15:00
5:35 AM,33.8,28.4,81,30.06,10.0,South,9.2,-,N/A,,Clear,170,2013-03-30 10:35:00
5:52 AM,35.6,26.6,70,30.06,10.0,South,9.2,-,N/A,,Scattered Clouds,180,2013-03-30 10:52:00
6:52 AM,35.6,26.6,70,30.03,10.0,SSE,9.2,-,N/A,,Scattered Clouds,150,2013-03-30 11:52:00
7:45 AM,35.6,28.4,75,30.00,10.0,SSE,13.8,-,N/A,,Overcast,160,2013-03-30 12:45:00
8:45 AM,35.6,28.4,75,29.99,10.0,South,9.2,-,N/A,,Overcast,180,2013-03-30 13:45:00
9:45 AM,33.8,30.2,87,29.98,3.0,SE,9.2,-,N/A,Rain,Light Rain,140,2013-03-30 14:45:00
10:45 AM,33.8,32.0,93,29.97,5.0,SSE,8.1,-,N/A,Rain,Light Rain,150,2013-03-30 15:45:00
11:45 AM,35.6,33.8,93,29.93,5.0,SSE,10.4,-,N/A,Rain,Light Rain,160,2013-03-30 16:45:00
12:45 PM,35.6,33.8,93,29.90,5.0,SSE,9.2,-,N/A,Rain,Light Rain,150,2013-03-30 17:45:00
1:50 PM,35.6,35.6,100,29.87,5.0,SE,8.1,-,N/A,Rain,Light Rain,140,2013-03-30 18:50:00
2:50 PM,37.4,35.6,93,29.85,2.5,SSE,4.6,-,N/A,Rain,Rain,160,2013-03-30 19:50:00
3:45 PM,37.4,37.4,100,29.85,1.8,Calm,Calm,-,N/A,Rain,Rain,0,2013-03-30 20:45:00
4:45 PM,37.4,37.4,100,29.83,2.5,South,6.9,-,N/A,Rain,Light Rain,180,2013-03-30 21:45:00
5:45 PM,37.4,37.4,100,29.82,0.5,South,4.6,-,N/A,Fog,Fog,190,2013-03-30 22:45:00
6:16 PM,37.4,37.4,100,29.82,0.1,Calm,Calm,-,N/A,Fog,Fog,0,2013-03-30 23:16:00
6:45 PM,37.4,37.4,100,29.81,0.1,WSW,4.6,-,N/A,Fog,Fog,240,2013-03-30 23:45:00
7:50 PM,37.4,37.4,100,29.80,0.2,West,5.8,-,N/A,Fog,Fog,280,2013-03-31 00:50:00
8:45 PM,37.4,37.4,100,29.82,1.0,WNW,9.2,-,N/A,,Overcast,300,2013-03-31 01:45:00
9:45 PM,35.6,35.6,100,29.82,3.0,WNW,5.8,-,N/A,,Overcast,300,2013-03-31 02:45:00
10:15 PM,35.6,35.6,100,29.82,5.0,WNW,3.5,-,N/A,,Overcast,300,2013-03-31 03:15:00
10:35 PM,35.6,35.6,100,29.81,5.0,Calm,Calm,-,N/A,,Overcast,0,2013-03-31 03:35:00
10:55 PM,33.8,33.8,100,29.80,4.0,WSW,4.6,-,N/A,,Mostly Cloudy,250,2013-03-31 03:55:00
11:15 PM,33.8,33.8,100,29.80,2.0,West,5.8,-,N/A,,Clear,260,2013-03-31 04:15:00
11:35 PM,33.8,33.8,100,29.79,3.0,West,8.1,-,N/A,,Clear,260,2013-03-31 04:35:00
11:55 PM,33.8,33.8,100,29.79,1.8,West,9.2,-,N/A,,Scattered Clouds,270,2013-03-31 04:55:00